,

(GMT )
Farnborough

Weather History for EGLF - February, 2014

Change the Weather History Date:

Wednesday, February 12, 2014

  Actual Average Record
Temperature  
Mean Temperature 41 °F -  
Max Temperature 47 °F - - ()
Min Temperature 35 °F - - ()
Degree Days  
Heating Degree Days 24    
Moisture  
Dew Point 38 °F    
Average Humidity 78    
Maximum Humidity 93    
Minimum Humidity 57    
Precipitation  
Precipitation 0.43 in - - ()
Sea Level Pressure  
Sea Level Pressure 29.30 in    
Wind  
Wind Speed 17 mph ()    
Max Wind Speed 32 mph    
Max Gust Speed 51 mph    
Visibility 9.3 miles    
Events Rain    
T = Trace of Precipitation, MM = Missing Value Source: Averaged Metar Reports

Daily Weather History Graph

Daily Weather History Graph

Search for Another Location

Airport or City:

Trip Planner

Search our weather history database for the weather conditions in past years. The results will help you decide how hot, cold, wet, or windy it might be!

Date:

Astronomy

Feb. 12, 2014 Rise Set
Actual Time 7:22 AM GMT 5:13 PM GMT
Civil Twilight 6:47 AM GMT 5:47 PM GMT
Nautical Twilight 6:08 AM GMT 6:26 PM GMT
Astronomical Twilight 5:30 AM GMT 7:05 PM GMT
Moon 3:07 PM GMT (2/12) 5:37 AM GMT (2/12)
Length of Visible Light 11h 00m
Length of Day
9h 50m
Waxing Gibbous, 94% of the Moon is Illuminated
Feb 12
Waxing Gibbous
Feb 14
Full
Feb 22
Last Quarter
Mar 1
New
Mar 8
First Quarter

Hourly Weather History & Observations

Time (GMT) Temp. Windchill Dew Point Humidity Pressure Visibility Wind Dir Wind Speed Gust Speed Precip Events Conditions
12:00 AM 36 °F - 32 °F 78% 29.60 in 22 mi WSW 10.4 mph - -   Mostly Cloudy
1:00 AM 36 °F - 32 °F 80% 29.62 in 19 mi SW 11.5 mph - -   Scattered Clouds
2:00 AM 39 °F - 33 °F 72% 29.61 in 18 mi SW 10.4 mph - -   Mostly Cloudy
3:00 AM 40 °F - 33 °F 69% 29.62 in 17 mi SW 12.7 mph - -   Overcast
4:00 AM 40 °F - 35 °F 75% 29.61 in 11 mi SW 11.5 mph - -   Mostly Cloudy
5:00 AM 40 °F - 36 °F 78% 29.60 in 16 mi SSW 11.5 mph - -   Mostly Cloudy
6:00 AM 40 °F - 36 °F 82% 29.57 in 17 mi SSW 10.4 mph - -   Scattered Clouds
6:50 AM 39.2 °F 31.6 °F 37.4 °F 93% 29.53 in 6.2 mi South 12.7 mph - N/A   Partly Cloudy
7:00 AM 40 °F - 37 °F 87% 29.55 in 19 mi SSW 13.8 mph - -   Mostly Cloudy
7:20 AM 41.0 °F 32.8 °F 39.2 °F 93% 29.53 in 6.2 mi South 16.1 mph - N/A   Partly Cloudy
7:50 AM 41.0 °F 33.1 °F 39.2 °F 93% 29.50 in 6.2 mi South 15.0 mph - N/A   Scattered Clouds
8:00 AM 43 °F - 39 °F 82% 29.52 in 16 mi South 16.1 mph - -   Mostly Cloudy
8:20 AM 42.8 °F 35.4 °F 41.0 °F 93% 29.47 in 6.2 mi South 15.0 mph - N/A   Partly Cloudy
8:50 AM 44.6 °F 36.6 °F 41.0 °F 87% 29.47 in 6.2 mi South 19.6 mph - N/A   Scattered Clouds
9:00 AM 45 °F - 40 °F 78% 29.46 in 12 mi SSW 19.6 mph - -   Scattered Clouds
9:20 AM 44.6 °F 36.1 °F 41.0 °F 87% 29.44 in 6.2 mi South 21.9 mph - N/A Rain Light Rain
9:50 AM 46.4 °F 38.1 °F 41.0 °F 81% 29.42 in 6.2 mi South 24.2 mph 36.8 mph N/A   Overcast
10:00 AM 46 °F - 40 °F 73% 29.40 in 12 mi SSW 25.3 mph - -   Partly Cloudy
10:20 AM 44.6 °F 35.3 °F 39.2 °F 81% 29.39 in 6.2 mi SSW 26.5 mph 50.6 mph N/A   Mostly Cloudy
10:50 AM 44.6 °F 36.1 °F 39.2 °F 81% 29.36 in 6.2 mi South 21.9 mph 36.8 mph N/A   Mostly Cloudy
11:00 AM 46 °F - 39 °F 70% 29.37 in 13 mi SSW 21.9 mph - -   Mostly Cloudy
11:20 AM 44.6 °F 35.3 °F 41.0 °F 87% 29.33 in 6.2 mi South 26.5 mph 47.2 mph N/A   Mostly Cloudy
11:50 AM 44.6 °F 35.1 °F 39.2 °F 81% 29.27 in 6.2 mi South 27.6 mph 42.6 mph N/A   Mostly Cloudy
12:00 PM 46 °F - 39 °F 70% 29.27 in 13 mi South 26.5 mph - -   Mostly Cloudy
12:20 PM 44.6 °F 35.3 °F 41.0 °F 87% 29.24 in 5.0 mi South 26.5 mph 42.6 mph N/A Rain Rain
12:50 PM 44.6 °F 35.3 °F 41.0 °F 87% 29.21 in 3.1 mi South 26.5 mph 42.6 mph N/A Rain Rain
1:00 PM 44 °F - 41 °F 84% 29.21 in 3 mi South 25.3 mph - -   Mostly Cloudy
1:20 PM 42.8 °F 33.1 °F 41.0 °F 93% 29.18 in 1.9 mi South 25.3 mph 36.8 mph N/A Rain Rain
1:50 PM 42.8 °F 32.3 °F 41.0 °F 93% 29.15 in 3.1 mi South 29.9 mph 49.5 mph N/A Rain Rain
2:00 PM 44 °F - 41 °F 86% 29.13 in 3 mi South 27.6 mph - -   Mostly Cloudy
2:20 PM 44.6 °F 34.9 °F 42.8 °F 93% 29.12 in 3.1 mi South 28.8 mph 47.2 mph N/A Rain Rain
2:50 PM 44.6 °F 35.3 °F 42.8 °F 93% 29.09 in 5.6 mi SSW 26.5 mph 40.3 mph N/A   Mostly Cloudy
3:00 PM 46 °F - 43 °F 84% 29.11 in 6 mi SSW 26.5 mph - -   Mostly Cloudy
3:20 PM 46.4 °F - 42.8 °F 87% 29.09 in - North - - N/A   Scattered Clouds
3:50 PM 46.4 °F 37.0 °F 39.2 °F 76% 29.09 in 6.2 mi SW 31.1 mph 49.5 mph N/A   Scattered Clouds
4:00 PM 46 °F - 37 °F 62% 29.12 in 19 mi SW 32.2 mph - -   Scattered Clouds
4:20 PM 46.4 °F 37.9 °F 35.6 °F 66% 29.12 in 6.2 mi SW 25.3 mph - N/A   Partly Cloudy
4:50 PM 46.4 °F 38.7 °F 37.4 °F 71% 29.12 in 6.2 mi SW 20.7 mph 35.7 mph N/A   Partly Cloudy
5:00 PM 46 °F - 38 °F 63% 29.13 in 10 mi SW 21.9 mph - -   Mostly Cloudy
5:20 PM 46.4 °F 38.7 °F 37.4 °F 71% 29.12 in - SW 20.7 mph - N/A   Clear
5:50 PM 44.6 °F 35.5 °F 35.6 °F 71% 29.15 in - SW 25.3 mph 36.8 mph N/A   Clear
6:00 PM 45 °F - 35 °F 57% 29.15 in 15 mi SW 25.3 mph - -   Mostly Cloudy
6:20 PM 44.6 °F 35.9 °F 35.6 °F 71% 29.15 in 6.2 mi SW 23.0 mph 34.5 mph N/A   Partly Cloudy
6:50 PM 44.6 °F 35.5 °F 35.6 °F 71% 29.15 in 6.2 mi SSW 25.3 mph 40.3 mph N/A   Scattered Clouds
7:00 PM 45 °F - 36 °F 62% 29.17 in 11 mi SW 24.2 mph - -   Partly Cloudy
7:20 PM 37.4 °F 27.8 °F 35.6 °F 93% 29.18 in 6.2 mi SW 17.3 mph - N/A   Partly Cloudy
7:50 PM 42.8 °F 34.0 °F 37.4 °F 81% 29.18 in 6.2 mi SW 20.7 mph - N/A   Partly Cloudy
8:00 PM 44 °F - 37 °F 68% 29.18 in 11 mi SW 21.9 mph - -   Mostly Cloudy
8:20 PM 41.0 °F 30.7 °F 32.0 °F 70% 29.18 in - SW 25.3 mph 36.8 mph N/A   Clear
8:50 PM 41.0 °F 30.9 °F 33.8 °F 76% 29.21 in - SW 24.2 mph 35.7 mph N/A   Clear
9:00 PM 41 °F - 33 °F 64% 29.21 in 22 mi WSW 23.0 mph - -   Scattered Clouds
10:00 PM 41 °F - 33 °F 66% 29.24 in 16 mi WSW 23.0 mph - -  
11:00 PM 42 °F - 32 °F 57% 29.24 in 19 mi WSW 25.3 mph - -   Scattered Clouds